When you browse on this site, cookies collect data to enhance your experience and personalize the content and advertising you see.
Visit our Privacy Policy to learn more. By continuing to use the site, you agree to this use of cookies and data.
  • In United Kingdom
  • List of Countries
  • For 7 days
  • Water Temperature
  • Satellite Maps
  • Weather Map
  • Weather Widgets
  • user-avatar
    Login

    Hourly Weather Dankon

    Today, 25 April, Thursday

    Time Temperature Precipitation Wind Pressure Humidity
    00:00 +26°C° 0 mm 0 mps 701 mmHg 52%
    01:00 +24°C° 0 mm 0 mps 701 mmHg 55%
    02:00 +24°C° 0 mm 0 mps 700 mmHg 56%
    03:00 +24°C° 0 mm 0 mps 700 mmHg 57%
    04:00 +23°C° 0 mm 0 mps 700 mmHg 58%
    05:00 +24°C° 0 mm 0 mps 701 mmHg 56%
    06:00 +25°C° 0 mm 0 mps 701 mmHg 54%
    07:00 +27°C° 0 mm 0 mps 702 mmHg 53%
    08:00 +30°C° 0 mm 0 mps 702 mmHg 45%
    09:00 +35°C° 0 mm 1 mps 703 mmHg 37%
    10:00 +39°C° 0 mm 1 mps 703 mmHg 29%
    11:00 +39°C° 0 mm 1 mps 702 mmHg 27%
    12:00 +40°C° 0 mm 1 mps 702 mmHg 26%
    13:00 +41°C° 0 mm 1 mps 701 mmHg 24%
    14:00 +40°C° 0 mm 1 mps 701 mmHg 26%
    15:00 +39°C° 0 mm 1 mps 700 mmHg 28%
    16:00 +37°C° 0 mm 1 mps 699 mmHg 31%
    17:00 +35°C° 0 mm 1 mps 699 mmHg 35%
    18:00 +33°C° 0 mm 1 mps 699 mmHg 39%
    19:00 +31°C° 0 mm 1 mps 699 mmHg 43%
    20:00 +30°C° 0 mm 1 mps 699 mmHg 47%
    21:00 +29°C° 0 mm 1 mps 700 mmHg 50%
    22:00 +28°C° 0 mm 1 mps 700 mmHg 53%
    23:00 +28°C° 0 mm 1 mps 700 mmHg 55%

    Tomorrow, 26 April, Friday

    Time Temperature Precipitation Wind Pressure Humidity
    00:00 +27°C° 0 mm 1 mps 700 mmHg 57%
    01:00 +27°C° 0 mm 1 mps 700 mmHg 59%
    02:00 +24°C° 0 mm 0 mps 700 mmHg 61%
    03:00 +24°C° 0 mm 0 mps 699 mmHg 62%
    04:00 +24°C° 0 mm 0 mps 699 mmHg 63%
    05:00 +24°C° 0 mm 0 mps 700 mmHg 61%
    06:00 +25°C° 0 mm 0 mps 700 mmHg 58%
    07:00 +26°C° 0 mm 0 mps 701 mmHg 56%
    08:00 +30°C° 0 mm 0 mps 701 mmHg 46%
    09:00 +34°C° 0 mm 0 mps 702 mmHg 35%
    10:00 +41°C° 0 mm 1 mps 703 mmHg 25%
    11:00 +40°C° 0 mm 1 mps 702 mmHg 27%
    12:00 +39°C° 0 mm 1 mps 701 mmHg 28%
    13:00 +37°C° 0 mm 1 mps 701 mmHg 30%
    14:00 +37°C° 0 mm 1 mps 700 mmHg 31%
    15:00 +36°C° 0 mm 1 mps 699 mmHg 33%
    16:00 +36°C° 0 mm 1 mps 699 mmHg 34%
    17:00 +33°C° 0.2 mm 1 mps 699 mmHg 43%
    18:00 +31°C° 0.2 mm 1 mps 698 mmHg 51%
    19:00 +29°C° 0.2 mm 1 mps 698 mmHg 60%
    20:00 +28°C° 0 mm 1 mps 699 mmHg 63%
    21:00 +27°C° 0 mm 1 mps 700 mmHg 66%
    22:00 +26°C° 0 mm 1 mps 700 mmHg 68%
    23:00 +26°C° 0.1 mm 1 mps 700 mmHg 71%

    Day after tomorrow, 27 April, Saturday

    Time Temperature Precipitation Wind Pressure Humidity
    00:00 +25°C° 0.1 mm 1 mps 700 mmHg 74%
    01:00 +25°C° 0.1 mm 1 mps 700 mmHg 77%
    02:00 +25°C° 0.1 mm 1 mps 700 mmHg 77%
    03:00 +25°C° 0.1 mm 1 mps 700 mmHg 78%
    04:00 +25°C° 0.1 mm 1 mps 700 mmHg 79%
    05:00 +25°C° 0.1 mm 1 mps 701 mmHg 78%
    06:00 +26°C° 0.1 mm 1 mps 701 mmHg 78%
    07:00 +26°C° 0.1 mm 1 mps 702 mmHg 77%
    08:00 +30°C° 0 mm 1 mps 703 mmHg 63%
    09:00 +33°C° 0 mm 1 mps 703 mmHg 49%
    10:00 +37°C° 0 mm 2 mps 704 mmHg 35%
    11:00 +38°C° 0 mm 2 mps 703 mmHg 32%
    12:00 +39°C° 0 mm 2 mps 702 mmHg 29%
    13:00 +40°C° 0 mm 2 mps 702 mmHg 26%
    14:00 +39°C° 0 mm 2 mps 701 mmHg 28%
    15:00 +38°C° 0 mm 2 mps 700 mmHg 30%
    16:00 +36°C° 0 mm 1 mps 699 mmHg 33%
    17:00 +34°C° 0 mm 1 mps 699 mmHg 38%
    18:00 +33°C° 0 mm 1 mps 699 mmHg 44%
    19:00 +31°C° 0 mm 1 mps 699 mmHg 49%
    20:00 +30°C° 0 mm 1 mps 699 mmHg 55%
    21:00 +28°C° 0 mm 1 mps 700 mmHg 60%
    22:00 +27°C° 0 mm 1 mps 701 mmHg 65%
    23:00 +27°C° 0 mm 1 mps 700 mmHg 68%

    28 April, Sunday

    Time Temperature Precipitation Wind Pressure Humidity
    00:00 +26°C° 0 mm 1 mps 700 mmHg 71%
    01:00 +25°C° 0 mm 1 mps 700 mmHg 74%
    02:00 +25°C° 0 mm 1 mps 700 mmHg 75%
    03:00 +25°C° 0 mm 1 mps 700 mmHg 75%
    04:00 +25°C° 0 mm 1 mps 699 mmHg 76%
    05:00 +25°C° 0.6 mm 1 mps 700 mmHg 77%
    06:00 +25°C° 0.6 mm 1 mps 701 mmHg 79%
    07:00 +25°C° 0.6 mm 1 mps 701 mmHg 81%
    08:00 +29°C° 0 mm 1 mps 702 mmHg 65%
    09:00 +34°C° 0 mm 2 mps 702 mmHg 50%
    10:00 +37°C° 0 mm 2 mps 703 mmHg 35%
    11:00 +38°C° 0 mm 2 mps 702 mmHg 33%
    12:00 +38°C° 0 mm 2 mps 702 mmHg 31%
    13:00 +39°C° 0 mm 2 mps 701 mmHg 29%
    14:00 +38°C° 0 mm 2 mps 700 mmHg 32%
    15:00 +36°C° 0 mm 1 mps 700 mmHg 35%
    16:00 +35°C° 0 mm 1 mps 699 mmHg 39%
    17:00 +33°C° 0 mm 1 mps 699 mmHg 43%
    18:00 +32°C° 0 mm 1 mps 699 mmHg 48%
    19:00 +31°C° 0 mm 1 mps 699 mmHg 53%
    20:00 +29°C° 0 mm 1 mps 700 mmHg 58%
    21:00 +28°C° 0 mm 1 mps 700 mmHg 64%
    22:00 +27°C° 0 mm 1 mps 701 mmHg 69%
    23:00 +26°C° 0 mm 1 mps 701 mmHg 72%

    29 April, Monday

    Time Temperature Precipitation Wind Pressure Humidity
    00:00 +26°C° 0 mm 1 mps 700 mmHg 75%
    01:00 +25°C° 0 mm 1 mps 700 mmHg 78%
    02:00 +25°C° 0 mm 1 mps 700 mmHg 79%
    03:00 +25°C° 0 mm 1 mps 700 mmHg 79%
    04:00 +24°C° 0 mm 1 mps 700 mmHg 80%
    05:00 +25°C° 0 mm 1 mps 700 mmHg 77%
    06:00 +24°C° 0 mm 0 mps 701 mmHg 73%
    07:00 +25°C° 0 mm 0 mps 701 mmHg 70%
    08:00 +30°C° 0 mm 1 mps 702 mmHg 58%
    09:00 +32°C° 0 mm 1 mps 702 mmHg 47%
    10:00 +35°C° 0 mm 1 mps 703 mmHg 35%
    11:00 +37°C° 0 mm 2 mps 702 mmHg 32%
    12:00 +38°C° 0 mm 2 mps 701 mmHg 30%
    13:00 +39°C° 0 mm 2 mps 701 mmHg 27%
    14:00 +39°C° 0 mm 2 mps 700 mmHg 26%
    15:00 +39°C° 0 mm 1 mps 699 mmHg 26%
    16:00 +39°C° 0 mm 1 mps 699 mmHg 26%
    17:00 +35°C° 0 mm 1 mps 699 mmHg 33%
    18:00 +33°C° 0 mm 1 mps 699 mmHg 39%
    19:00 +31°C° 0 mm 1 mps 699 mmHg 46%
    20:00 +30°C° 0 mm 1 mps 699 mmHg 51%
    21:00 +29°C° 0 mm 1 mps 699 mmHg 56%
    22:00 +27°C° 0 mm 1 mps 700 mmHg 60%
    23:00 +27°C° 0 mm 1 mps 700 mmHg 62%

    30 April, Tuesday

    Time Temperature Precipitation Wind Pressure Humidity
    00:00 +27°C° 0 mm 1 mps 699 mmHg 64%
    01:00 +26°C° 0 mm 1 mps 699 mmHg 66%
    02:00 +26°C° 0 mm 1 mps 699 mmHg 68%
    03:00 +25°C° 0 mm 1 mps 699 mmHg 70%
    04:00 +25°C° 0 mm 1 mps 699 mmHg 72%
    05:00 +24°C° 0 mm 0 mps 700 mmHg 69%
    06:00 +25°C° 0 mm 0 mps 700 mmHg 65%
    07:00 +26°C° 0 mm 0 mps 701 mmHg 62%
    08:00 +31°C° 0 mm 1 mps 701 mmHg 52%
    09:00 +34°C° 0 mm 1 mps 702 mmHg 41%
    10:00 +38°C° 0 mm 2 mps 702 mmHg 30%
    11:00 +39°C° 0 mm 2 mps 701 mmHg 29%
    12:00 +39°C° 0 mm 2 mps 701 mmHg 27%
    13:00 +39°C° 0 mm 2 mps 700 mmHg 26%
    14:00 +38°C° 0 mm 2 mps 699 mmHg 29%
    15:00 +36°C° 0 mm 1 mps 699 mmHg 31%
    16:00 +35°C° 0 mm 1 mps 698 mmHg 34%
    17:00 +34°C° 0 mm 1 mps 698 mmHg 38%
    18:00 +32°C° 0 mm 1 mps 699 mmHg 42%
    19:00 +31°C° 0 mm 1 mps 699 mmHg 45%
    20:00 +30°C° 0 mm 1 mps 699 mmHg 48%
    21:00 +27°C° 0 mm 0 mps 700 mmHg 50%
    22:00 +27°C° 0 mm 0 mps 700 mmHg 52%
    23:00 +26°C° 0 mm 0 mps 700 mmHg 55%
    Show more